[[{"header":{"parameterUnit":"m.s-1","parameterCategory":2,"la1":30.2991,"la2":30.254,"lo1":-89.0895,"lo2":-89.0444,"dy":0.0017,"dx":0.0017,"nx":28,"ny":28,"refTime":"2024-02-15T03:00:00:Z","depth":"0","parameterNumber":2,"parameterNumberName":"U-component_of_CURRENTS"},"data":[0,0,0,0,0,0,0,0,0,0,0,0,0,0,0,0,0,0,0,0,0,0,0,0,0,0,0,0,0,0,0,0,0,0,0,0,0,0,0,0,0,0,0,0,0,0,0,0,0,0,0,0,0,0,0,0,0,0,0.2121,0.2118,0,0.1827,0.1824,0.1821,0.1628,0.1626,0.1625,0.1624,0.1494,0.1492,0.149,0,0,0,0,0,0,0,0,0,0,0,0,0,0.2375,0.2373,0.2121,0.2117,0.2114,0.1828,0.1824,0.182,0.1628,0.1626,0.1625,0.1623,0.1495,0.1492,0.1489,0,0,0,0,0,0,0,0,0,0,0,0,0,0.2192,0.2372,0.2122,0.1983,0.1968,0.1829,0.1824,0.1819,0.1628,0.1626,0.1624,0.1622,0.1496,0.1492,0.1489,0.1507,0,0,0.1479,0.1477,0,0,0,0,0,0,0,0,0.2203,0.2183,0.2007,0.1993,0.1975,0.1762,0.1865,0.1722,0.1629,0.1757,0.1624,0.1621,0.16,0.1588,0.1535,0.1501,0.1495,0.1478,0.1476,0.1475,0.1474,0,0,0,0,0,0,0,0.2216,0.2194,0.2005,0.2004,0.1984,0.1888,0.1861,0.1836,0.1697,0.1746,0.1731,0.1699,0.1592,0.1539,0.1531,0.1493,0.1479,0.1476,0.1473,0.1472,0.1511,0.1514,0,0,0,0,0,0,0.2261,0.2207,0.2014,0.1996,0.2086,0.1885,0.1855,0.1832,0.1693,0.1668,0.1701,0.1691,0.1545,0.1535,0.1526,0.1566,0.1475,0.1472,0.147,0.1508,0.1512,0.1515,0,0,0,0,0,0,0.2268,0.2247,0.2026,0.2094,0.2059,0.1884,0.1859,0.1828,0.1782,0.1656,0.1634,0.1689,0.1543,0.1531,0.1506,0.1559,0.147,0.1467,0.1504,0.1509,0.1513,0.1631,0,0,0,0,0,0,0.2277,0.2252,0.2254,0.2098,0.2057,0.1961,0.186,0.1823,0.1764,0.1749,0.164,0.1623,0.1541,0.1511,0.1502,0.1553,0.1465,0.1501,0.1507,0.1512,0.1623,0.1639,0.1652,0,0,0,0,0,0.2287,0.2283,0.2256,0.2232,0.2065,0.1962,0.1933,0.18,0.1767,0.1753,0.1677,0.1627,0.1543,0.151,0.1499,0.155,0.1498,0.1505,0.1512,0.1616,0.1635,0.1652,0,0,0,0,0,0,0.2374,0.2259,0.2226,0.2183,0.2097,0.1929,0.1892,0.1831,0.1756,0.1749,0.1646,0.1626,0.1627,0.1587,0.1553,0.1585,0.1523,0.1528,0.1606,0.1624,0.1638,0.1606,0.1462,0,0,0,0,0,0.2407,0.238,0.2262,0.2228,0.2196,0.2065,0.201,0.1934,0.1842,0.1804,0.173,0.1677,0.1648,0.1632,0.159,0.1606,0.158,0.1643,0.1657,0.167,0.1641,0.1652,0.1664,0.1538,0.1538,0.1538,0,0,0.242,0.2361,0.2338,0.2247,0.2165,0.2112,0.2026,0.1958,0.1918,0.1813,0.1757,0.1724,0.1665,0.166,0.1663,0.1632,0.1707,0.1678,0.1689,0.1652,0.166,0.1672,0.1682,0.1542,0.1542,0.1541,0,0,0.2424,0.24,0.2373,0.2324,0.2232,0.216,0.2162,0.2035,0.1989,0.1948,0.1872,0.1864,0.1807,0.1764,0.1742,0.1827,0.1783,0.1846,0.1889,0.1902,0.1911,0.1919,0.1958,0.1968,0.1855,0.1856,0.1856,0,0.2445,0.2397,0.2349,0.2316,0.2268,0.2199,0.2158,0.2113,0.1996,0.1968,0.1953,0.1877,0.1849,0.1832,0.1858,0.1857,0.1859,0.1822,0.1918,0.1925,0.193,0.1967,0.1976,0.1862,0.1861,0.1861,0.186,0,0.2418,0.239,0.2375,0.2318,0.2278,0.2236,0.2175,0.2153,0.2118,0.2057,0.2042,0.1998,0.1941,0.1974,0.1934,0.1974,0.1966,0.1934,0.1865,0.1949,0.1985,0.1992,0.1871,0.1869,0.1867,0.1866,0,0,0.2425,0.2363,0.2357,0.2332,0.2277,0.2232,0.2219,0.2157,0.2133,0.2102,0.2063,0.2063,0.2041,0.2016,0.2,0.2025,0.2108,0.2004,0.2001,0.2027,0.216,0.2135,0.214,0.2091,0.2092,0.2092,0.2188,0,0.2407,0.2348,0.2326,0.2282,0.2245,0.2216,0.2197,0.2158,0.2127,0.2091,0.2091,0.2057,0.2061,0.205,0.208,0.2074,0.2123,0.2085,0.2084,0.2084,0.2038,0.2145,0.2012,0.2082,0.2195,0.2196,0.2197,0,0.2384,0.2345,0.2289,0.2249,0.2233,0.2211,0.2167,0.2143,0.2112,0.2094,0.2079,0.2055,0.2079,0.2079,0.2131,0.2106,0.2144,0.2161,0.2165,0.2086,0.207,0.2006,0.209,0.1939,0.2207,0.2206,0.2206,0,0.2383,0.2327,0.2279,0.2262,0.2209,0.2192,0.217,0.2135,0.2112,0.209,0.207,0.208,0.2077,0.2123,0.2157,0.215,0.2216,0.2209,0.2232,0.2232,0.2084,0.2069,0.1994,0.2264,0.2264,0.2264,0.2263,0,0.2365,0.2327,0.2275,0.2249,0.221,0.2186,0.2149,0.2132,0.2104,0.2078,0.207,0.2049,0.2085,0.2112,0.2165,0.2217,0.2229,0.2248,0.2252,0.2131,0.2119,0.195,0.191,0.2267,0.2266,0.2266,0.2265,0,0.2345,0.2313,0.2266,0.2217,0.2203,0.2176,0.2135,0.2111,0.2092,0.206,0.2054,0.2036,0.2068,0.2112,0.218,0.2216,0.2188,0.2294,0.2163,0.2149,0.2029,0.2003,0.1907,0.1875,0.2347,0.2347,0.2347,0,0.2308,0.2283,0.2244,0.2223,0.2195,0.2155,0.213,0.2107,0.2079,0.2046,0.203,0.2036,0.2034,0.212,0.2163,0.2254,0.2165,0.2193,0.2155,0.2008,0.1983,0.1911,0.1886,0.2038,0.2036,0.2034,0.2032,0,0.2249,0.2253,0.2221,0.2192,0.2165,0.2126,0.2089,0.2068,0.2042,0.2009,0.198,0.1979,0.2026,0.2025,0.2115,0.2147,0.2027,0.2155,0.2015,0.1746,0.1647,0.162,0.2014,0.2013,0.2015,0.2016,0.2017,0.2018,0.2221,0.2196,0.2185,0.2156,0.2128,0.2095,0.2062,0.2029,0.1987,0.193,0.194,0.1916,0.1905,0.1994,0.1979,0.1838,0.1932,0.1775,0.177,0.1721,0.1628,0.2001,0.1988,0.199,0.1991,0.1992,0.1994,0,0.2196,0.2173,0.2144,0.2116,0.2086,0.2082,0.203,0.1989,0.1937,0.1898,0.1865,0.1807,0.1733,0.1687,0.1581,0.1469,0.1396,0.1372,0.1199,0.1213,0.1533,0.1451,0.1302,0.1302,0.1302,0.1302,0.1303,0.1303,0.2175,0.215,0.2138,0.2087,0.2064,0.2011,0.1985,0.1926,0.1884,0.1767,0.1707,0.1676,0.16,0.1311,0.1076,0.1027,0.0918,0.0842,0.0899,0.1045,0.1079,0.1112,0.102,0.0783,0.0783,0.0484,0.0481,0.0479]},{"header":{"parameterUnit":"m.s-1","parameterCategory":2,"la1":30.2991,"la2":30.254,"lo1":-89.0895,"lo2":-89.0444,"dy":0.0017,"dx":0.0017,"nx":28,"ny":28,"refTime":"2024-02-15T03:00:00:Z","depth":"0","parameterNumber":3,"parameterNumberName":"V-component_of_CURRENTS"},"data":[0,0,0,0,0,0,0,0,0,0,0,0,0,0,0,0,0,0,0,0,0,0,0,0,0,0,0,0,0,0,0,0,0,0,0,0,0,0,0,0,0,0,0,0,0,0,0,0,0,0,0,0,0,0,0,0,0,0,-0.0807,-0.0804,0,-0.0537,-0.0534,-0.0531,-0.0377,-0.0377,-0.0376,-0.0376,-0.033,-0.0329,-0.0328,0,0,0,0,0,0,0,0,0,0,0,0,0,-0.0987,-0.0986,-0.0807,-0.0804,-0.08,-0.0537,-0.0534,-0.053,-0.0377,-0.0377,-0.0376,-0.0376,-0.033,-0.0329,-0.0328,0,0,0,0,0,0,0,0,0,0,0,0,0,-0.0832,-0.0985,-0.0808,-0.0694,-0.0681,-0.0538,-0.0533,-0.0529,-0.0377,-0.0377,-0.0376,-0.0375,-0.033,-0.0329,-0.0328,-0.0332,0,0,-0.0324,-0.0323,0,0,0,0,0,0,0,0,-0.0841,-0.0825,-0.0714,-0.0701,-0.0687,-0.0491,-0.058,-0.0474,-0.0377,-0.0491,-0.0376,-0.0375,-0.0406,-0.0398,-0.0343,-0.033,-0.0328,-0.0324,-0.0323,-0.0322,-0.0322,0,0,0,0,0,0,0,-0.0852,-0.0835,-0.0699,-0.071,-0.0694,-0.0586,-0.0565,-0.0557,-0.0458,-0.0481,-0.047,-0.0442,-0.04,-0.0345,-0.0342,-0.0327,-0.0324,-0.0322,-0.0322,-0.0321,-0.0276,-0.0276,0,0,0,0,0,0,-0.0899,-0.0846,-0.0707,-0.0691,-0.0765,-0.0585,-0.0561,-0.0553,-0.0453,-0.0436,-0.0443,-0.0436,-0.0347,-0.0344,-0.034,-0.0337,-0.0322,-0.0321,-0.032,-0.0277,-0.0276,-0.0276,0,0,0,0,0,0,-0.0905,-0.0891,-0.0718,-0.0762,-0.0732,-0.0584,-0.0575,-0.0548,-0.0496,-0.0422,-0.0408,-0.0419,-0.0347,-0.0342,-0.0309,-0.0335,-0.0321,-0.0319,-0.0277,-0.0277,-0.0276,-0.0335,0,0,0,0,0,0,-0.0911,-0.0895,-0.0899,-0.0766,-0.0732,-0.0647,-0.0575,-0.0544,-0.048,-0.0469,-0.0398,-0.0391,-0.0346,-0.0311,-0.0307,-0.0333,-0.0318,-0.0278,-0.0277,-0.0276,-0.0334,-0.0337,-0.0339,0,0,0,0,0,-0.0919,-0.0923,-0.0902,-0.0884,-0.0747,-0.0647,-0.062,-0.0509,-0.0481,-0.046,-0.0393,-0.0393,-0.0304,-0.0309,-0.0305,-0.0332,-0.0278,-0.0277,-0.0276,-0.0333,-0.0336,-0.0339,0,0,0,0,0,0,-0.0996,-0.0904,-0.0878,-0.0854,-0.077,-0.0622,-0.0588,-0.0525,-0.0449,-0.045,-0.0382,-0.0371,-0.0352,-0.033,-0.0337,-0.0312,-0.0295,-0.0293,-0.0339,-0.0342,-0.0345,-0.035,-0.0317,0,0,0,0,0,-0.1024,-0.1007,-0.0903,-0.0884,-0.0853,-0.0731,-0.0676,-0.0611,-0.0525,-0.0488,-0.0429,-0.038,-0.0343,-0.0334,-0.0294,-0.029,-0.0253,-0.0304,-0.0307,-0.031,-0.0308,-0.0261,-0.026,-0.0273,-0.0273,-0.0273,0,0,-0.1046,-0.0995,-0.0983,-0.09,-0.0828,-0.0774,-0.0696,-0.0631,-0.0581,-0.0507,-0.0435,-0.0392,-0.0341,-0.0312,-0.0306,-0.0301,-0.0284,-0.0308,-0.0311,-0.0308,-0.026,-0.0259,-0.0258,-0.0272,-0.0272,-0.0272,0,0,-0.1074,-0.1048,-0.1039,-0.0981,-0.0892,-0.0815,-0.081,-0.0682,-0.0625,-0.0559,-0.049,-0.0452,-0.0392,-0.0344,-0.032,-0.0322,-0.0297,-0.0327,-0.0353,-0.0308,-0.0307,-0.0306,-0.0253,-0.0247,-0.0333,-0.0334,-0.0334,0,-0.1112,-0.1078,-0.1018,-0.0991,-0.0938,-0.0847,-0.0813,-0.0744,-0.0615,-0.0573,-0.0554,-0.043,-0.0403,-0.0355,-0.0347,-0.0333,-0.0295,-0.035,-0.0314,-0.0311,-0.0309,-0.0255,-0.0247,-0.0336,-0.0336,-0.0336,-0.0335,0,-0.1118,-0.1093,-0.1083,-0.1023,-0.0968,-0.0925,-0.0832,-0.0777,-0.0712,-0.0631,-0.0565,-0.0495,-0.0419,-0.0418,-0.0385,-0.0358,-0.0332,-0.0321,-0.0312,-0.0312,-0.0255,-0.0245,-0.034,-0.0339,-0.0338,-0.0338,0,0,-0.1212,-0.1107,-0.1107,-0.1069,-0.0981,-0.0927,-0.0875,-0.0778,-0.0726,-0.0646,-0.057,-0.0518,-0.0476,-0.0445,-0.0405,-0.0376,-0.0334,-0.035,-0.0346,-0.0309,-0.0224,-0.0201,-0.0188,-0.0319,-0.0317,-0.0316,-0.019,0,-0.1235,-0.1176,-0.1122,-0.1066,-0.1022,-0.0939,-0.0883,-0.0798,-0.0717,-0.0627,-0.0572,-0.0496,-0.0489,-0.0453,-0.0426,-0.0339,-0.0312,-0.0368,-0.022,-0.0215,-0.0204,-0.0178,-0.0142,-0.0026,-0.0181,-0.0179,-0.0178,0,-0.1267,-0.1212,-0.1153,-0.1052,-0.103,-0.0989,-0.0877,-0.0816,-0.0702,-0.0642,-0.0575,-0.0508,-0.044,-0.0441,-0.0321,-0.0354,-0.0302,-0.0251,-0.0244,-0.0195,-0.0175,-0.0049,-0.0003,-0.0032,-0.0163,-0.0164,-0.0165,0,-0.1324,-0.1242,-0.1183,-0.115,-0.1029,-0.0994,-0.0933,-0.0823,-0.0751,-0.0648,-0.0581,-0.0499,-0.0425,-0.0363,-0.0255,-0.0283,-0.0116,-0.0137,-0.0069,-0.0066,0.0008,0.0015,0.0036,-0.0071,-0.0072,-0.0072,-0.0072,0,-0.1354,-0.1314,-0.1204,-0.1169,-0.11,-0.1025,-0.0946,-0.0873,-0.0765,-0.0672,-0.0596,-0.0501,-0.0402,-0.0287,-0.0232,-0.0101,-0.0093,-0.0061,-0.003,-0.0011,-0.0007,0.0006,-0.0025,-0.0067,-0.0068,-0.0069,-0.007,0,-0.1397,-0.1333,-0.1262,-0.115,-0.1117,-0.1068,-0.0946,-0.0878,-0.079,-0.0666,-0.0629,-0.0473,-0.032,-0.0213,-0.0072,-0.0045,0.0066,0.0091,0.0112,0.0141,0.014,0.0105,0.0192,0.0202,0.0177,0.0179,0.018,0,-0.1397,-0.1361,-0.1251,-0.1203,-0.1148,-0.1067,-0.0996,-0.0897,-0.0818,-0.0636,-0.0569,-0.0394,-0.0242,-0.0023,0.0076,0.02,0.0157,0.0263,0.0196,0.0155,0.0139,0.0112,0.0111,0.0282,0.0284,0.0286,0.0287,0,-0.1382,-0.135,-0.1277,-0.119,-0.112,-0.1031,-0.0935,-0.0876,-0.0743,-0.0626,-0.0452,-0.0324,-0.0096,0.0095,0.0248,0.0292,0.0245,0.0295,0.0259,0.0227,0.0197,0.0217,0.0182,0.0301,0.03,0.0298,0.0298,0.0297,-0.1371,-0.1314,-0.1229,-0.1148,-0.1073,-0.0984,-0.0907,-0.0799,-0.0663,-0.0432,-0.0364,-0.0097,0.0101,0.0342,0.035,0.0392,0.0362,0.0384,0.035,0.0331,0.0314,0.0302,0.0441,0.044,0.044,0.0439,0.0439,0,-0.1346,-0.1265,-0.1183,-0.1078,-0.0999,-0.0969,-0.0841,-0.0736,-0.0572,-0.0315,-0.0135,0.0204,0.0372,0.0473,0.0547,0.0486,0.0427,0.0428,0.0389,0.0389,0.0401,0.0374,0.0498,0.0498,0.0498,0.0498,0.0498,0.0498,-0.1312,-0.1227,-0.1173,-0.103,-0.0957,-0.0829,-0.0754,-0.06,-0.0404,-0.0017,0.0271,0.0462,0.0616,0.0588,0.0551,0.0496,0.0424,0.0407,0.0368,0.0345,0.0337,0.033,0.0297,0.0402,0.0402,0.0383,0.0382,0.0382]}],[{"header":{"parameterUnit":"m.s-1","parameterCategory":2,"la1":30.2991,"la2":30.254,"lo1":-89.0895,"lo2":-89.0444,"dy":0.0017,"dx":0.0017,"nx":28,"ny":28,"refTime":"2024-02-15T03:00:00:Z","depth":"2","parameterNumber":2,"parameterNumberName":"U-component_of_CURRENTS"},"data":[0,0,0,0,0,0,0,0,0,0,0,0,0,0,0,0,0,0,0,0,0,0,0,0,0,0,0,0,0,0,0,0,0,0,0,0,0,0,0,0,0,0,0,0,0,0,0,0,0,0,0,0,0,0,0,0,0,0,0.0643,0.0643,0,0.0652,0.0652,0.0652,0.0675,0.0675,0.0676,0.0676,0.0676,0.0676,0.0675,0,0,0,0,0,0,0,0,0,0,0,0,0,0.0615,0.0615,0.0643,0.0643,0.0643,0.0652,0.0652,0.0652,0.0675,0.0675,0.0676,0.0676,0.0676,0.0676,0.0675,0,0,0,0,0,0,0,0,0,0,0,0,0,0.0625,0.0615,0.0643,0.0656,0.0658,0.0652,0.0652,0.0652,0.0674,0.0675,0.0676,0.0677,0.0677,0.0676,0.0675,0.0654,0,0,0.0673,0.0672,0,0,0,0,0,0,0,0,0.0624,0.0626,0.0654,0.0655,0.0657,0.0664,0.0643,0.0653,0.0674,0.0667,0.0676,0.0677,0.0671,0.0671,0.067,0.0654,0.0654,0.0673,0.0672,0.0672,0.0672,0,0,0,0,0,0,0,0.0624,0.0625,0.0646,0.0654,0.0656,0.0652,0.0654,0.0644,0.0663,0.0668,0.067,0.0672,0.0672,0.067,0.067,0.0654,0.0673,0.0672,0.0671,0.0671,0.069,0.0691,0,0,0,0,0,0,0.0625,0.0625,0.0646,0.0646,0.0643,0.0652,0.0654,0.066,0.0664,0.0666,0.0671,0.0673,0.0671,0.0671,0.067,0.0707,0.0672,0.0671,0.0671,0.0689,0.0691,0.0692,0,0,0,0,0,0,0.0625,0.0627,0.0645,0.0636,0.0638,0.0652,0.0658,0.066,0.0673,0.0667,0.0668,0.0683,0.0672,0.0671,0.0682,0.0705,0.0671,0.067,0.0688,0.069,0.0691,0.0741,0,0,0,0,0,0,0.0624,0.0627,0.0633,0.0637,0.0639,0.0646,0.0657,0.0659,0.0672,0.0675,0.0677,0.0677,0.0672,0.0684,0.0682,0.0703,0.0669,0.0687,0.0689,0.0691,0.0738,0.0744,0.0749,0,0,0,0,0,0.0623,0.062,0.0634,0.0636,0.0647,0.0646,0.0646,0.0657,0.0672,0.0673,0.0688,0.0678,0.0694,0.0684,0.0681,0.0703,0.0686,0.0688,0.0691,0.0735,0.0742,0.0748,0,0,0,0,0,0,0.0607,0.0623,0.0637,0.064,0.0648,0.065,0.0651,0.0663,0.0675,0.0684,0.0684,0.0685,0.0706,0.0695,0.0683,0.0715,0.069,0.0692,0.0725,0.0732,0.0737,0.0787,0.0669,0,0,0,0,0,0.0609,0.0614,0.0628,0.063,0.0636,0.0648,0.0652,0.0662,0.0671,0.0678,0.0688,0.0699,0.0709,0.0714,0.0716,0.0725,0.0749,0.074,0.0745,0.075,0.0789,0.0869,0.0886,0.0699,0.0699,0.0699,0,0,0.0604,0.0612,0.0617,0.0628,0.0636,0.0649,0.0652,0.0659,0.0679,0.0674,0.0707,0.0715,0.0716,0.0736,0.0744,0.0732,0.0803,0.0752,0.0756,0.0794,0.0873,0.0892,0.0909,0.07,0.07,0.07,0,0,0.0594,0.0606,0.0612,0.0622,0.0637,0.0647,0.0654,0.0672,0.0689,0.0709,0.0726,0.0766,0.0753,0.0789,0.0796,0.0833,0.0829,0.0814,0.0882,0.0958,0.0975,0.0991,0.0992,0.1008,0.0817,0.0817,0.0817,0,0.0593,0.0609,0.0611,0.0623,0.0644,0.0651,0.0675,0.0682,0.0707,0.0744,0.0724,0.0796,0.0791,0.0861,0.0875,0.0851,0.0866,0.0854,0.0969,0.0985,0.1,0.0999,0.1015,0.0819,0.0819,0.0819,0.0819,0,0.0592,0.0614,0.0615,0.0645,0.066,0.0676,0.0698,0.0727,0.0749,0.0777,0.0849,0.0863,0.0923,0.0913,0.0901,0.1008,0.097,0.0966,0.0957,0.1022,0.1015,0.1031,0.0823,0.0822,0.0821,0.0821,0,0,0.0592,0.0614,0.0624,0.0656,0.0684,0.0702,0.0739,0.0796,0.0848,0.0877,0.0957,0.0997,0.1036,0.1051,0.1056,0.1117,0.1207,0.109,0.1092,0.11,0.1329,0.1176,0.1178,0.1225,0.123,0.1233,0.1261,0,0.0609,0.0643,0.0651,0.0705,0.0737,0.0767,0.0806,0.0858,0.0894,0.0963,0.1019,0.1077,0.1074,0.1107,0.1181,0.1193,0.1262,0.1197,0.1259,0.126,0.1126,0.1198,0.1116,0.1125,0.1277,0.128,0.1282,0,0.0635,0.0655,0.0709,0.0773,0.0791,0.0822,0.092,0.0951,0.1035,0.1066,0.1159,0.1184,0.1284,0.1263,0.1381,0.1335,0.1364,0.1371,0.1372,0.1239,0.1141,0.1095,0.1149,0.1309,0.1307,0.1305,0.1303,0,0.0675,0.0716,0.0768,0.0787,0.0842,0.089,0.0925,0.1003,0.1045,0.1144,0.118,0.1299,0.1338,0.1426,0.1434,0.1424,0.1529,0.1512,0.141,0.1395,0.1346,0.132,0.1648,0.1648,0.1648,0.1648,0.1648,0,0.0717,0.0766,0.0793,0.0826,0.09,0.0927,0.1012,0.1062,0.1129,0.1173,0.1247,0.1296,0.1388,0.1436,0.147,0.1464,0.1568,0.1449,0.1419,0.1348,0.1323,0.1509,0.1492,0.1649,0.1649,0.1649,0.1648,0,0.0772,0.0787,0.0851,0.0904,0.0925,0.0983,0.1041,0.109,0.1146,0.1201,0.1231,0.1309,0.1353,0.1406,0.1499,0.147,0.1499,0.1484,0.1343,0.1297,0.1304,0.1289,0.1383,0.1379,0.1375,0.1372,0.1369,0,0.0805,0.0841,0.0904,0.0932,0.096,0.1024,0.1063,0.1112,0.1132,0.1192,0.1208,0.127,0.1281,0.1321,0.132,0.1335,0.1419,0.1237,0.1224,0.1329,0.1291,0.1282,0.1273,0.1162,0.1158,0.1155,0.1152,0,0.0864,0.089,0.0931,0.098,0.1023,0.1056,0.109,0.1111,0.1139,0.1157,0.1174,0.1187,0.1192,0.1144,0.1119,0.1132,0.1218,0.116,0.1377,0.1211,0.1115,0.1078,0.1079,0.1122,0.1125,0.1127,0.1129,0.113,0.091,0.0943,0.0982,0.1026,0.1063,0.1073,0.1082,0.1075,0.1085,0.1064,0.1106,0.1052,0.1018,0.0923,0.0909,0.0914,0.1004,0.0978,0.0993,0.101,0.0949,0.0849,0.0791,0.0792,0.0793,0.0794,0.0794,0,0.0951,0.0978,0.1015,0.1048,0.1052,0.1087,0.1084,0.1041,0.1002,0.0962,0.0945,0.0797,0.0742,0.0739,0.069,0.0663,0.0718,0.0646,0.073,0.0759,0.0786,0.0717,0.0496,0.0495,0.0494,0.0493,0,0,0.0977,0.101,0.1011,0.1014,0.104,0.1019,0.1012,0.094,0.0867,0.0754,0.068,0.0702,0.0673,0.0546,0.0545,0.0513,0.0638,0.0499,0.074,0.0868,0.0893,0.0978,0.0904,0,0,0,0,0]},{"header":{"parameterUnit":"m.s-1","parameterCategory":2,"la1":30.2991,"la2":30.254,"lo1":-89.0895,"lo2":-89.0444,"dy":0.0017,"dx":0.0017,"nx":28,"ny":28,"refTime":"2024-02-15T03:00:00:Z","depth":"2","parameterNumber":3,"parameterNumberName":"V-component_of_CURRENTS"},"data":[0,0,0,0,0,0,0,0,0,0,0,0,0,0,0,0,0,0,0,0,0,0,0,0,0,0,0,0,0,0,0,0,0,0,0,0,0,0,0,0,0,0,0,0,0,0,0,0,0,0,0,0,0,0,0,0,0,0,0.013,0.013,0,0.0136,0.0136,0.0136,0.0126,0.0126,0.0126,0.0126,0.0096,0.0095,0.0094,0,0,0,0,0,0,0,0,0,0,0,0,0,0.0113,0.0113,0.013,0.013,0.0131,0.0136,0.0136,0.0136,0.0126,0.0126,0.0126,0.0125,0.0096,0.0095,0.0094,0,0,0,0,0,0,0,0,0,0,0,0,0,0.0117,0.0113,0.013,0.0128,0.0128,0.0136,0.0136,0.0136,0.0126,0.0126,0.0126,0.0125,0.0096,0.0095,0.0094,0.0091,0,0,0.0091,0.0091,0,0,0,0,0,0,0,0,0.0117,0.0118,0.0128,0.0128,0.0128,0.0132,0.0119,0.012,0.0126,0.0124,0.0125,0.0125,0.0106,0.0105,0.0103,0.009,0.0088,0.0091,0.009,0.009,0.009,0,0,0,0,0,0,0,0.0117,0.0117,0.013,0.0128,0.0129,0.0128,0.0128,0.0119,0.0113,0.0124,0.0124,0.0129,0.0106,0.0104,0.0102,0.0088,0.0091,0.009,0.0089,0.0089,0.007,0.007,0,0,0,0,0,0,0.0121,0.0117,0.013,0.013,0.0125,0.0129,0.0129,0.0129,0.0114,0.0113,0.0129,0.0128,0.0106,0.0103,0.0101,0.0108,0.009,0.0089,0.0088,0.007,0.007,0.007,0,0,0,0,0,0,0.0121,0.0122,0.0129,0.0126,0.0127,0.013,0.013,0.0129,0.0125,0.0119,0.0116,0.0125,0.0106,0.0102,0.0091,0.0106,0.0088,0.0087,0.007,0.007,0.007,0.0114,0,0,0,0,0,0,0.012,0.0122,0.0117,0.0126,0.0128,0.0135,0.013,0.013,0.0129,0.0128,0.0114,0.0112,0.0105,0.0092,0.009,0.0104,0.0087,0.007,0.007,0.007,0.0113,0.0116,0.0119,0,0,0,0,0,0.0119,0.0127,0.0117,0.0118,0.0123,0.0135,0.0135,0.0135,0.0129,0.0129,0.0118,0.0112,0.0092,0.0091,0.0088,0.0103,0.0069,0.007,0.007,0.0111,0.0115,0.0119,0,0,0,0,0,0,0.0124,0.0127,0.0116,0.0124,0.0125,0.0134,0.0137,0.0134,0.0125,0.012,0.011,0.0107,0.0105,0.0092,0.0092,0.0097,0.0081,0.0081,0.0113,0.0117,0.012,0.0165,0.0086,0,0,0,0,0,0.0121,0.0122,0.0124,0.013,0.0129,0.0129,0.0131,0.0129,0.0127,0.0123,0.0115,0.0105,0.0105,0.01,0.0094,0.0092,0.0106,0.0099,0.0102,0.0105,0.0139,0.0174,0.0184,0.0071,0.0071,0.0071,0,0,0.0126,0.0127,0.0128,0.013,0.0129,0.0142,0.0129,0.0134,0.0148,0.0121,0.0129,0.0114,0.0106,0.011,0.0108,0.01,0.0138,0.0105,0.0108,0.0141,0.0175,0.0187,0.0197,0.0071,0.0071,0.0071,0,0,0.0147,0.0135,0.0143,0.0144,0.0144,0.0147,0.0148,0.0149,0.015,0.015,0.0142,0.0145,0.0125,0.014,0.0141,0.0157,0.0153,0.0136,0.0191,0.0224,0.0234,0.0244,0.0252,0.0263,0.0138,0.0138,0.0138,0,0.0149,0.0164,0.0149,0.0159,0.0173,0.0152,0.0174,0.0172,0.017,0.0188,0.0156,0.0175,0.0154,0.0198,0.0195,0.017,0.0174,0.0179,0.0231,0.0241,0.025,0.0257,0.0268,0.014,0.014,0.014,0.014,0,0.0181,0.0188,0.0197,0.0203,0.0211,0.0226,0.0227,0.0231,0.0224,0.0233,0.0262,0.0242,0.0264,0.0245,0.0221,0.0276,0.0251,0.0232,0.0229,0.0265,0.0268,0.0279,0.0144,0.0143,0.0142,0.0142,0,0,0.0194,0.0215,0.0215,0.0237,0.0239,0.0258,0.0278,0.031,0.0345,0.0331,0.0393,0.0377,0.0373,0.0376,0.0351,0.037,0.041,0.0325,0.0326,0.0347,0.0466,0.038,0.0382,0.0396,0.0398,0.04,0.0434,0,0.0222,0.0265,0.0265,0.0311,0.0339,0.0336,0.0368,0.039,0.0397,0.0443,0.0448,0.0475,0.042,0.0426,0.0445,0.0424,0.0444,0.0403,0.0418,0.0419,0.035,0.0394,0.0377,0.04,0.0444,0.0445,0.0447,0,0.0249,0.0281,0.033,0.0389,0.0401,0.0418,0.048,0.0504,0.0551,0.0558,0.0596,0.0594,0.0632,0.0569,0.0593,0.0564,0.0528,0.0505,0.0505,0.0429,0.0354,0.0375,0.0417,0.0464,0.0463,0.0461,0.046,0,0.0283,0.033,0.0379,0.0393,0.0445,0.0469,0.0494,0.0537,0.0575,0.0628,0.0663,0.0709,0.0723,0.0718,0.0651,0.0629,0.0664,0.0629,0.0528,0.052,0.0514,0.0501,0.0663,0.0663,0.0663,0.0663,0.0663,0,0.0324,0.0361,0.0392,0.0419,0.0485,0.0503,0.0566,0.0595,0.0651,0.071,0.0721,0.0766,0.0758,0.0766,0.071,0.0647,0.0712,0.0564,0.0538,0.0521,0.0509,0.0574,0.0563,0.0664,0.0664,0.0664,0.0664,0,0.0356,0.0372,0.0431,0.0484,0.0497,0.0539,0.0593,0.0647,0.068,0.0759,0.078,0.0824,0.0816,0.0793,0.0773,0.0704,0.066,0.0616,0.0579,0.0547,0.0483,0.0474,0.054,0.0537,0.0535,0.0534,0.0532,0,0.0385,0.0414,0.0468,0.0497,0.0513,0.0563,0.0605,0.0649,0.0714,0.078,0.0842,0.0849,0.0856,0.0795,0.0691,0.0609,0.0614,0.0521,0.048,0.0511,0.0478,0.0472,0.0466,0.0486,0.0484,0.0482,0.0481,0,0.0441,0.0442,0.0488,0.0539,0.0575,0.0636,0.07,0.0742,0.0804,0.0847,0.0886,0.0881,0.0819,0.0724,0.0603,0.0538,0.0536,0.0485,0.0574,0.0495,0.0456,0.0424,0.0421,0.0469,0.047,0.0471,0.0472,0.0472,0.047,0.0502,0.0538,0.0593,0.0635,0.0692,0.0745,0.0795,0.0851,0.0914,0.0908,0.0883,0.0799,0.0618,0.0511,0.0398,0.0417,0.038,0.0387,0.0395,0.0359,0.0315,0.0295,0.0295,0.0295,0.0295,0.0296,0,0.0517,0.0537,0.0594,0.0653,0.0718,0.0714,0.0812,0.0849,0.0881,0.0902,0.0907,0.0782,0.0679,0.0584,0.039,0.0278,0.0297,0.0252,0.031,0.0322,0.0333,0.0296,0.0215,0.0215,0.0214,0.0214,0,0,0.0538,0.059,0.0619,0.0715,0.0746,0.081,0.0854,0.0864,0.0895,0.0864,0.0838,0.0841,0.0701,0.0549,0.0416,0.0312,0.0341,0.0288,0.0361,0.0456,0.0468,0.041,0.0366,0,0,0,0,0]}],[{"header":{"parameterUnit":"m.s-1","parameterCategory":2,"la1":30.2991,"la2":30.254,"lo1":-89.0895,"lo2":-89.0444,"dy":0.0017,"dx":0.0017,"nx":28,"ny":28,"refTime":"2024-02-15T03:00:00:Z","depth":"4","parameterNumber":2,"parameterNumberName":"U-component_of_CURRENTS"},"data":[0,0,0,0,0,0,0,0,0,0,0,0,0,0,0,0,0,0,0,0,0,0,0,0,0,0,0,0,0,0,0,0,0,0,0,0,0,0,0,0,0,0,0,0,0,0,0,0,0,0,0,0,0,0,0,0,0,0,-0.0159,-0.0158,0,-0.0092,-0.0092,-0.0091,-0.0042,-0.0041,-0.0041,-0.004,0.0025,0.0026,0.0027,0,0,0,0,0,0,0,0,0,0,0,0,0,-0.0246,-0.0244,-0.0159,-0.0158,-0.0157,-0.0092,-0.0092,-0.0091,-0.0042,-0.0041,-0.0041,-0.004,0.0025,0.0026,0.0028,0,0,0,0,0,0,0,0,0,0,0,0,0,-0.0197,-0.0244,-0.0159,-0.0124,-0.0121,-0.0093,-0.0091,-0.009,-0.0042,-0.0041,-0.0041,-0.004,0.0024,0.0026,0.0028,0.0024,0,0,0.0034,0.0034,0,0,0,0,0,0,0,0,-0.02,-0.0194,-0.013,-0.0127,-0.0122,-0.0074,-0.0098,-0.0052,-0.0042,-0.0073,-0.004,-0.0039,-0.0008,-0.0004,0.0006,0.0027,0.003,0.0034,0.0035,0.0036,0.0036,0,0,0,0,0,0,0,-0.0203,-0.0197,-0.0134,-0.0129,-0.0125,-0.0112,-0.0105,-0.0089,-0.0046,-0.007,-0.0066,-0.0057,-0.0006,0.0004,0.0008,0.0031,0.0034,0.0035,0.0037,0.0037,0.0077,0.0077,0,0,0,0,0,0,-0.021,-0.02,-0.0136,-0.0131,-0.0159,-0.0111,-0.0103,-0.0091,-0.0046,-0.0039,-0.0058,-0.0055,0.0,0.0006,0.001,0.0044,0.0036,0.0037,0.0039,0.0077,0.0077,0.0077,0,0,0,0,0,0,-0.0212,-0.0205,-0.0138,-0.0164,-0.0154,-0.0111,-0.0098,-0.009,-0.0072,-0.0037,-0.0029,-0.0047,0.0001,0.0008,0.0027,0.0045,0.0038,0.004,0.0078,0.0077,0.0077,0.0088,0,0,0,0,0,0,-0.0215,-0.0206,-0.0206,-0.0164,-0.0153,-0.012,-0.0098,-0.0089,-0.0068,-0.0064,-0.0025,-0.0019,0.0002,0.0024,0.0029,0.0048,0.0042,0.0078,0.0077,0.0077,0.0087,0.0088,0.0088,0,0,0,0,0,-0.0218,-0.0218,-0.0206,-0.0198,-0.0152,-0.0119,-0.0113,-0.008,-0.0068,-0.0062,-0.0038,-0.002,0.0027,0.0025,0.0031,0.0051,0.0078,0.0078,0.0077,0.0087,0.0088,0.0088,0,0,0,0,0,0,-0.0252,-0.0211,-0.0198,-0.0184,-0.0154,-0.0111,-0.0105,-0.0082,-0.0058,-0.0052,-0.0022,-0.0014,0.0011,0.0021,0.0018,0.0059,0.0056,0.0057,0.0061,0.0062,0.0062,0.0079,0.0043,0,0,0,0,0,-0.0261,-0.0251,-0.0208,-0.0198,-0.0186,-0.0147,-0.0132,-0.0104,-0.0075,-0.0063,-0.0037,-0.0012,0.0012,0.0029,0.0047,0.0067,0.0078,0.0082,0.0083,0.0083,0.0099,0.0134,0.0139,0.0077,0.0077,0.0077,0,0,-0.0269,-0.0248,-0.0241,-0.0206,-0.0183,-0.0159,-0.0136,-0.0109,-0.0083,-0.0061,-0.003,-0.0011,0.0015,0.0043,0.0055,0.0057,0.0098,0.0083,0.0083,0.0099,0.0134,0.0141,0.0146,0.0077,0.0077,0.0077,0,0,-0.0276,-0.0265,-0.0255,-0.0233,-0.0196,-0.0172,-0.0164,-0.0118,-0.0094,-0.0064,-0.004,-0.0017,0.002,0.0045,0.0062,0.0071,0.0097,0.0082,0.0107,0.014,0.0146,0.0152,0.0142,0.0147,0.0087,0.0087,0.0087,0,-0.0287,-0.0264,-0.0248,-0.023,-0.0209,-0.0178,-0.0153,-0.0128,-0.008,-0.0049,-0.0054,0.0016,0.0022,0.0075,0.0079,0.0074,0.0093,0.0105,0.0143,0.0149,0.0154,0.0144,0.0149,0.0088,0.0088,0.0088,0.0087,0,-0.0276,-0.026,-0.0255,-0.0222,-0.0203,-0.0178,-0.014,-0.0111,-0.0084,-0.0045,0.0011,0.0024,0.0077,0.0073,0.0081,0.0132,0.0129,0.0137,0.0145,0.0162,0.0148,0.0153,0.0088,0.0088,0.0088,0.0088,0,0,-0.0275,-0.0251,-0.0246,-0.0226,-0.0192,-0.0167,-0.0134,-0.0075,-0.0029,0.0003,0.0069,0.009,0.0119,0.0139,0.0153,0.0172,0.0197,0.0179,0.0181,0.0176,0.0258,0.0232,0.0235,0.0231,0.0232,0.0234,0.0221,0,-0.0262,-0.0234,-0.0223,-0.0188,-0.0165,-0.0133,-0.0096,-0.0043,0.0001,0.0065,0.0099,0.0157,0.014,0.0175,0.0194,0.0204,0.0219,0.0199,0.0238,0.0238,0.022,0.0243,0.0239,0.0225,0.0226,0.0227,0.0228,0,-0.0239,-0.0222,-0.0192,-0.0149,-0.0135,-0.0106,-0.0029,0.0011,0.0097,0.0136,0.0201,0.0234,0.0275,0.0256,0.0285,0.0284,0.0279,0.0271,0.0271,0.0255,0.0224,0.0213,0.0237,0.0237,0.0236,0.0235,0.0235,0,-0.0225,-0.0194,-0.0169,-0.0156,-0.0107,-0.007,-0.003,0.0048,0.0097,0.0198,0.0238,0.0303,0.0333,0.0351,0.0319,0.0326,0.0333,0.0338,0.0304,0.0299,0.0321,0.0316,0.0369,0.0369,0.0369,0.0369,0.0369,0,-0.0203,-0.0182,-0.0155,-0.0134,-0.0081,-0.0046,0.0032,0.0084,0.0169,0.0232,0.0286,0.0329,0.0365,0.0368,0.0348,0.0328,0.0355,0.0317,0.031,0.0318,0.0313,0.0322,0.0317,0.0368,0.0368,0.0369,0.0369,0,-0.019,-0.0177,-0.0146,-0.0096,-0.0071,-0.0027,0.006,0.0115,0.0189,0.027,0.0304,0.0362,0.0377,0.0369,0.0378,0.0353,0.0338,0.0322,0.0299,0.0288,0.0275,0.0271,0.0312,0.0312,0.0311,0.0311,0.031,0,-0.0184,-0.0165,-0.0123,-0.01,-0.0073,-0.0003,0.0049,0.0132,0.0181,0.0275,0.0305,0.0353,0.0382,0.0354,0.0355,0.0326,0.0318,0.0299,0.0327,0.0289,0.0277,0.0273,0.0269,0.0309,0.0309,0.0309,0.0309,0,-0.0172,-0.0161,-0.0141,-0.0094,-0.0046,0.0006,0.0081,0.0117,0.0209,0.0265,0.0316,0.0341,0.0353,0.0354,0.0326,0.0302,0.0313,0.0293,0.0295,0.0321,0.0286,0.0274,0.0271,0.0307,0.0307,0.0307,0.0307,0,-0.0169,-0.0158,-0.0134,-0.0091,-0.0047,-0.0001,0.0046,0.0108,0.0168,0.0268,0.0278,0.0315,0.0356,0.034,0.0308,0.0293,0.0305,0.0292,0.0294,0.0297,0.0298,0.0251,0.0267,0,0,0,0,0,-0.0158,-0.0147,-0.0124,-0.0083,-0.005,-0.0022,0.0054,0.0099,0.0179,0.0212,0.0253,0.0269,0.0283,0.0291,0.0274,0.0293,0.0288,0.0271,0.0269,0.0296,0.0298,0.0302,0,0,0,0,0,0,-0.0153,-0.0137,-0.0132,-0.0098,-0.0073,-0.0027,0.0014,0.007,0.0096,0.0174,0.0177,0.024,0.0242,0.028,0.0261,0.0264,0.0256,0.0295,0.0294,0.0295,0.0297,0.0299,0.0303,0,0,0,0,0]},{"header":{"parameterUnit":"m.s-1","parameterCategory":2,"la1":30.2991,"la2":30.254,"lo1":-89.0895,"lo2":-89.0444,"dy":0.0017,"dx":0.0017,"nx":28,"ny":28,"refTime":"2024-02-15T03:00:00:Z","depth":"4","parameterNumber":3,"parameterNumberName":"V-component_of_CURRENTS"},"data":[0,0,0,0,0,0,0,0,0,0,0,0,0,0,0,0,0,0,0,0,0,0,0,0,0,0,0,0,0,0,0,0,0,0,0,0,0,0,0,0,0,0,0,0,0,0,0,0,0,0,0,0,0,0,0,0,0,0,0.0272,0.0272,0,0.0261,0.0261,0.0261,0.0265,0.0265,0.0265,0.0265,0.0246,0.0245,0.0245,0,0,0,0,0,0,0,0,0,0,0,0,0,0.0287,0.0287,0.0272,0.0272,0.0272,0.0261,0.0261,0.0261,0.0265,0.0265,0.0265,0.0265,0.0246,0.0245,0.0245,0,0,0,0,0,0,0,0,0,0,0,0,0,0.0279,0.0287,0.0272,0.0272,0.0272,0.0261,0.0261,0.0261,0.0265,0.0265,0.0265,0.0265,0.0247,0.0246,0.0245,0.0232,0,0,0.0241,0.0241,0,0,0,0,0,0,0,0,0.028,0.0279,0.0272,0.0272,0.0272,0.0264,0.0259,0.0251,0.0265,0.0268,0.0265,0.0266,0.0251,0.0249,0.0248,0.0232,0.0231,0.0241,0.0241,0.024,0.024,0,0,0,0,0,0,0,0.028,0.0279,0.0268,0.0272,0.0272,0.0269,0.0269,0.0258,0.0258,0.0268,0.0268,0.0266,0.0251,0.0249,0.0247,0.023,0.0241,0.024,0.024,0.0239,0.0212,0.0212,0,0,0,0,0,0,0.0281,0.028,0.0269,0.0268,0.0276,0.0269,0.0268,0.0267,0.0258,0.0257,0.0265,0.0266,0.025,0.0248,0.0246,0.0247,0.024,0.0239,0.0239,0.0212,0.0212,0.0212,0,0,0,0,0,0,0.0281,0.028,0.0269,0.0273,0.0272,0.0268,0.0267,0.0266,0.0271,0.0257,0.0256,0.027,0.025,0.0248,0.0239,0.0245,0.0239,0.0238,0.0212,0.0212,0.0212,0.0237,0,0,0,0,0,0,0.0282,0.028,0.0284,0.0273,0.0271,0.0269,0.0266,0.0266,0.0268,0.0269,0.026,0.0259,0.025,0.0241,0.0238,0.0244,0.0237,0.0213,0.0212,0.0212,0.0237,0.0238,0.0239,0,0,0,0,0,0.0282,0.0284,0.0284,0.0283,0.0275,0.0269,0.0269,0.0267,0.0268,0.0272,0.0263,0.0259,0.0238,0.024,0.0236,0.0242,0.0213,0.0212,0.0212,0.0236,0.0238,0.0239,0,0,0,0,0,0,0.0292,0.0284,0.0284,0.0284,0.028,0.027,0.0273,0.0271,0.0267,0.027,0.0256,0.0253,0.0249,0.0239,0.0241,0.0233,0.0225,0.0224,0.0244,0.0246,0.0247,0.0247,0.0236,0,0,0,0,0,0.0296,0.0298,0.0288,0.029,0.0288,0.0282,0.0281,0.0281,0.0274,0.0273,0.0265,0.0255,0.0244,0.024,0.023,0.0224,0.0199,0.0226,0.0227,0.0228,0.0225,0.0184,0.0181,0.0211,0.0211,0.0211,0,0,0.0303,0.0297,0.03,0.0293,0.029,0.0291,0.0282,0.0285,0.0289,0.0271,0.0273,0.026,0.0243,0.0238,0.0235,0.0231,0.0208,0.0228,0.0229,0.0225,0.0183,0.018,0.0177,0.0211,0.0211,0.0211,0,0,0.0314,0.031,0.0316,0.0312,0.0309,0.0304,0.0306,0.03,0.03,0.0298,0.0285,0.0271,0.0262,0.0245,0.0236,0.0236,0.0216,0.024,0.0248,0.0208,0.0205,0.0202,0.0174,0.0168,0.0241,0.0241,0.0241,0,0.0325,0.0326,0.0317,0.0319,0.0317,0.0311,0.0315,0.0314,0.0308,0.03,0.0305,0.0272,0.0263,0.024,0.0246,0.0239,0.0218,0.0245,0.0209,0.0206,0.0202,0.0174,0.0168,0.0242,0.0242,0.0242,0.0242,0,0.0337,0.034,0.0341,0.0342,0.034,0.0343,0.0336,0.0336,0.0335,0.0326,0.0309,0.029,0.0268,0.0266,0.026,0.0232,0.0226,0.0216,0.0206,0.0201,0.0172,0.0164,0.0244,0.0244,0.0243,0.0243,0,0,0.0356,0.0351,0.0354,0.0353,0.0351,0.0348,0.0353,0.0344,0.0337,0.0332,0.0316,0.0299,0.0284,0.0273,0.0258,0.0227,0.0192,0.0218,0.0216,0.0193,0.0112,0.0134,0.0128,0.0177,0.0175,0.0174,0.0104,0,0.037,0.0374,0.0371,0.0377,0.0374,0.0368,0.0369,0.0361,0.035,0.0333,0.0309,0.0295,0.0289,0.0283,0.0249,0.0197,0.0173,0.0213,0.0118,0.0116,0.0137,0.012,0.017,0.0099,0.0097,0.0096,0.0095,0,0.0383,0.0381,0.039,0.0381,0.0381,0.0393,0.0379,0.0379,0.0354,0.0346,0.0322,0.0301,0.0259,0.0262,0.0168,0.0193,0.0162,0.0126,0.0122,0.0127,0.0124,0.0102,0.0081,0.0082,0.0083,0.0084,0.0085,0,0.0388,0.0393,0.0398,0.0398,0.0392,0.0404,0.0407,0.0389,0.0383,0.0361,0.0346,0.0292,0.0267,0.0206,0.0139,0.0152,0.0032,0.0037,0.0029,0.003,0.002,0.0024,-0.0016,-0.0016,-0.0016,-0.0015,-0.0015,0,0.0391,0.0396,0.0409,0.041,0.0424,0.0419,0.0427,0.0422,0.0407,0.0395,0.036,0.0329,0.0253,0.0179,0.0125,0.0046,0.0018,0.0025,0.0009,0.0034,0.004,0.0016,0.002,-0.0018,-0.0017,-0.0017,-0.0017,0,0.0387,0.0396,0.0402,0.0414,0.043,0.044,0.0461,0.0453,0.0442,0.0425,0.0424,0.0347,0.0257,0.0173,0.0064,0.0032,-0.0046,-0.0056,-0.0025,-0.0036,-0.0014,-0.0007,-0.0077,-0.0077,-0.0077,-0.0077,-0.0077,0,0.0377,0.0382,0.0412,0.0434,0.0451,0.0474,0.0488,0.0485,0.0478,0.043,0.0416,0.0337,0.0284,0.0128,0.0048,-0.0055,-0.0052,-0.0088,-0.0043,-0.0015,-0.0023,-0.0016,-0.001,-0.0077,-0.0077,-0.0077,-0.0077,0,0.0356,0.0378,0.038,0.0435,0.0468,0.0484,0.0511,0.0505,0.049,0.0478,0.0416,0.0347,0.0245,0.0137,0.0061,-0.0013,-0.0071,-0.0086,-0.0086,-0.0045,-0.0015,-0.0021,-0.0015,-0.0076,-0.0076,-0.0076,-0.0076,0,0.034,0.0348,0.0378,0.0424,0.0467,0.0493,0.0496,0.0492,0.0483,0.0448,0.0423,0.0321,0.0269,0.0158,0.0074,0.0013,0.0014,0.0008,0.0004,0.0002,0.0055,0.0106,0.0063,0,0,0,0,0,0.0325,0.0347,0.0376,0.0425,0.0467,0.0506,0.051,0.0502,0.0492,0.0461,0.0451,0.0368,0.0252,0.0178,0.0124,0.0077,-0.0004,0.0012,-0.0014,-0.0074,-0.0075,-0.0024,0,0,0,0,0,0,0.0313,0.0343,0.0363,0.0422,0.0473,0.0512,0.0517,0.0503,0.0482,0.0468,0.0397,0.0387,0.0258,0.0304,0.0139,0.0116,0.0097,-0.0039,-0.004,-0.0074,-0.0075,-0.0075,-0.0023,0,0,0,0,0]}]]